Location: ????
(33.1659°N, 35.6604°E)
Time: 03:40:18
(UTC+00:00)

Cosmos 2237 Rocket - Pass Details

Date: 20 September 2019
Orbit: 833 x 852 km, 71.0° (Epoch: 19 October)

Event Time Altitude Azimuth Distance (km) Brightness Sun altitude
Rises 17:34:08 0° 339° (NNW) 3,420 5.9 -24.8°
Reaches altitude 10° 17:36:36 10° 340° (NNW) 2,482 5.1 -25.3°
Maximum altitude 17:42:19 87° 69° (ENE) 857 2.1 -26.4°
Enters shadow 17:42:51 74° 149° (SSE) 884 2.0 -26.5°
